DW7889 Weather Reports


Display with metric or nautical units.
time (UTC)temp
F
wind
direction
speed
MPH
gust
MPH
rain 1hr
in
rain 24hr
in
rain mn
in
humidity
%
barometer
mb
20260906222034 42 165 2.0 7.0 0.00 0.00 0.00 75 1026.8
20260906221537 42 179 3.0 7.0 0.00 0.00 0.00 74 1026.8
20260906221036 42 153 3.0 5.0 0.00 0.00 0.00 74 1026.8
20260906220543 42 162 2.0 6.0 0.00 0.00 0.00 74 1026.8
20260906220045 42 160 2.0 7.0 0.00 0.00 0.00 74 1026.8
20260906215527 42 132 4.0 7.0 0.00 0.00 0.00 74 1026.8
20260906215109 43 172 3.0 5.0 0.00 0.00 0.00 74 1026.8
20260906214548 43 132 2.0 5.0 0.00 0.00 0.00 73 1026.9
20260906214033 43 126 2.0 6.0 0.00 0.00 0.00 73 1026.8
20260906213536 43 162 3.0 6.0 0.00 0.00 0.00 72 1026.8
20260906213039 43 174 3.0 7.0 0.00 0.00 0.00 72 1026.7
20260906212539 43 171 4.0 7.0 0.00 0.00 0.00 71 1026.7
20260906212043 43 148 3.0 6.0 0.00 0.00 0.00 71 1026.7
20260906211545 43 160 3.0 6.0 0.00 0.00 0.00 71 1026.7
20260906211045 44 117 4.0 6.0 0.00 0.00 0.00 70 1026.5
20260906210528 44 119 4.0 5.0 0.00 0.00 0.00 70 1026.5
20260906210029 44 146 3.0 5.0 0.00 0.00 0.00 69 1026.5
20260906205533 44 156 3.0 6.0 0.00 0.00 0.00 69 1026.6
20260906205039 44 158 4.0 7.0 0.00 0.00 0.00 69 1026.5
20260906202552 44 182 4.0 11.0 0.00 0.00 0.00 67 1026.3
20260906202028 45 175 5.0 10.0 0.00 0.00 0.00 67 1026.3
20260906201531 45 165 4.0 10.0 0.00 0.00 0.00 66 1026.3
20260906201050 45 210 5.0 12.0 0.00 0.00 0.00 65 1026.2
20260906200531 45 204 5.0 12.0 0.00 0.00 0.00 64 1026.1
20260906200057 45 201 6.0 11.0 0.00 0.00 0.00 64 1026.1
20260906195538 45 219 6.0 11.0 0.00 0.00 0.00 64 1026.0
20260906195043 45 195 7.0 14.0 0.00 0.00 0.00 63 1026.0
20260906194545 45 224 9.0 15.0 0.00 0.00 0.00 63 1025.9
20260906194047 45 203 7.0 15.0 0.00 0.00 0.00 62 1025.8
20260906193527 45 153 7.0 12.0 0.00 0.00 0.00 64 1025.8
20260906193052 45 218 5.0 12.0 0.00 0.00 0.00 66 1025.8
20260906192552 45 229 6.0 13.0 0.00 0.00 0.00 67 1025.9
20260906192032 45 150 7.0 13.0 0.00 0.00 0.00 66 1025.8
20260906191537 45 216 6.0 14.0 0.00 0.00 0.00 65 1025.7
20260906191057 45 200 10.0 14.0 0.00 0.00 0.00 64 1025.6
20260906190539 45 174 5.0 12.0 0.00 0.00 0.00 65 1025.6
20260906190044 45 149 7.0 12.0 0.00 0.00 0.00 65 1025.5
20260906185544 45 180 4.0 13.0 0.00 0.00 0.00 64 1025.5
20260906185106 45 165 4.0 13.0 0.00 0.00 0.00 65 1025.6
20260906184548 45 172 4.0 13.0 0.00 0.00 0.00 65 1025.5
20260906184046 45 158 7.0 15.0 0.00 0.00 0.00 64 1025.4
20260906183606 45 207 7.0 15.0 0.00 0.00 0.00 65 1025.4
20260906183027 45 200 10.0 15.0 0.00 0.00 0.00 66 1025.3
20260906182530 45 191 8.0 14.0 0.00 0.00 0.00 67 1025.4
20260906182032 45 221 8.0 12.0 0.00 0.00 0.00 66 1025.3
20260906181537 45 195 7.0 14.0 0.00 0.00 0.00 65 1025.4
20260906181040 45 155 8.0 15.0 0.00 0.00 0.00 64 1025.4
20260906180539 45 179 9.0 16.0 0.00 0.00 0.00 65 1025.5
20260906180042 45 169 9.0 17.0 0.00 0.00 0.00 63 1025.4
20260906175543 46 203 9.0 17.0 0.00 0.00 0.00 61 1025.4
20260906175046 46 225 9.0 16.0 0.00 0.00 0.00 57 1025.3
20260906174533 46 194 6.0 15.0 0.00 0.00 0.00 58 1025.5
20260906174033 46 236 6.0 13.0 0.00 0.00 0.00 58 1025.5
20260906173536 46 238 7.0 13.0 0.00 0.00 0.00 55 1025.5
20260906173101 47 252 6.0 17.0 0.00 0.00 0.00 55 1025.5
20260906172537 47 253 7.0 17.0 0.00 0.00 0.00 58 1025.5
20260906172042 46 192 6.0 12.0 0.00 0.00 0.00 55 1025.5
20260906171544 45 246 4.0 12.0 0.00 0.00 0.00 57 1025.6
20260906171046 45 200 7.0 18.0 0.00 0.00 0.00 61 1025.7
20260906170528 45 200 8.0 18.0 0.00 0.00 0.00 63 1025.7
20260906170049 46 194 9.0 17.0 0.00 0.00 0.00 62 1025.6
20260906165611 46 192 9.0 16.0 0.00 0.00 0.00 60 1025.6
20260906165031 46 220 10.0 17.0 0.00 0.00 0.00 58 1025.7
20260906164531 46 205 9.0 17.0 0.00 0.00 0.00 55 1025.7
20260906164033 46 177 9.0 16.0 0.00 0.00 0.00 61 1025.7
20260906163533 45 158 8.0 16.0 0.00 0.00 0.00 63 1025.8
20260906163035 44 172 8.0 18.0 0.00 0.00 0.00 64 1025.8
20260906162537 45 173 12.0 22.0 0.00 0.00 0.00 62 1025.8
20260906162043 45 223 14.0 22.0 0.00 0.00 0.00 61 1025.8
20260906161604 46 211 8.0 16.0 0.00 0.00 0.00 64 1025.8
20260906161046 45 185 7.0 16.0 0.00 0.00 0.00 62 1025.9
20260906160527 46 208 11.0 15.0 0.00 0.00 0.00 61 1026.0
20260906160032 46 182 7.0 14.0 0.00 0.00 0.00 61 1026.0
20260906155534 45 144 9.0 16.0 0.00 0.00 0.00 65 1026.2
20260906155054 45 166 8.0 20.0 0.00 0.00 0.00 66 1026.3
20260906154536 46 218 13.0 20.0 0.00 0.00 0.00 64 1026.2
20260906154038 45 214 11.0 17.0 0.00 0.00 0.00 63 1026.2
20260906153600 44 229 8.0 17.0 0.00 0.00 0.00 65 1026.2
20260906153041 45 176 11.0 17.0 0.00 0.00 0.00 66 1026.4
20260906152544 45 196 10.0 15.0 0.00 0.00 0.00 66 1026.4
20260906152042 44 193 9.0 20.0 0.00 0.00 0.00 67 1026.5
20260906151542 44 157 12.0 20.0 0.00 0.00 0.00 65 1026.5
20260906151037 44 159 8.0 12.0 0.00 0.00 0.00 64 1026.5
20260906145037 44 220 6.0 17.0 0.00 0.00 0.00 69 1026.8
20260906144537 44 205 8.0 18.0 0.00 0.00 0.00 66 1026.8
20260906144037 44 179 8.0 18.0 0.00 0.00 0.00 65 1026.7
20260906143544 44 180 8.0 20.0 0.00 0.00 0.00 64 1026.7
20260906143103 44 171 10.0 18.0 0.00 0.00 0.00 65 1026.7
20260906142543 44 191 10.0 18.0 0.00 0.00 0.00 67 1026.6
20260906142046 44 158 7.0 16.0 0.00 0.00 0.00 68 1026.6
20260906141806 43 266 9.0 19.0 0.00 0.00 0.00 68 1026.6
20260906141102 43 188 9.0 24.0 0.00 0.00 0.00 69 1026.5
20260906140542 43 184 11.0 20.0 0.00 0.00 0.00 67 1026.5
20260906140046 43 166 7.0 14.0 0.00 0.00 0.00 67 1026.5
20260906135548 43 143 8.0 17.0 0.00 0.00 0.00 69 1026.4
20260906135049 43 198 10.0 17.0 0.00 0.00 0.00 70 1026.6
20260906134548 43 220 10.0 18.0 0.00 0.00 0.00 71 1026.5
20260906134048 43 172 9.0 18.0 0.00 0.00 0.00 69 1026.5
20260906133529 43 208 8.0 20.0 0.00 0.00 0.00 69 1026.4
20260906133030 43 143 13.0 20.0 0.00 0.00 0.00 70 1026.4
20260906132530 43 178 9.0 16.0 0.00 0.00 0.00 71 1026.5
20260906132054 41 198 10.0 16.0 0.00 0.00 0.00 72 1026.5
20260906131556 41 185 9.0 16.0 0.00 0.00 0.00 73 1026.4
20260906131032 42 214 8.0 16.0 0.00 0.00 0.00 74 1026.5
20260906130550 42 198 10.0 15.0 0.00 0.00 0.00 73 1026.4
20260906130035 42 110 6.0 15.0 0.00 0.00 0.00 75 1026.4
20260906125541 41 155 9.0 15.0 0.00 0.00 0.00 77 1026.4
20260906125104 41 174 8.0 18.0 0.00 0.00 0.00 76 1026.4
20260906124545 41 192 10.0 18.0 0.00 0.00 0.00 76 1026.3
20260906124029 42 176 12.0 18.0 0.00 0.00 0.00 76 1026.4
20260906123530 42 185 8.0 14.0 0.00 0.00 0.00 76 1026.3
20260906123032 42 210 9.0 17.0 0.00 0.00 0.00 76 1026.3
20260906122533 42 123 9.0 17.0 0.00 0.00 0.00 75 1026.1
20260906122035 42 158 6.0 14.0 0.00 0.00 0.00 77 1026.1
20260906121538 41 131 6.0 15.0 0.00 0.00 0.00 78 1026.1
20260906121041 41 143 7.0 15.0 0.00 0.00 0.00 78 1026.1
20260906120543 41 181 6.0 14.0 0.00 0.00 0.00 79 1026.1
20260906120026 41 191 9.0 13.0 0.00 0.00 0.00 79 1026.0
20260906115549 40 206 9.0 14.0 0.00 0.00 0.00 80 1025.9
20260906115029 40 217 8.0 14.0 0.00 0.00 0.00 80 1025.7
20260906114536 41 184 7.0 14.0 0.00 0.00 0.00 80 1025.7
20260906114036 40 167 8.0 14.0 0.00 0.00 0.00 79 1025.5
20260906113540 40 175 7.0 18.0 0.00 0.00 0.00 81 1025.7
20260906113041 40 212 9.0 18.0 0.00 0.00 0.00 81 1025.7
20260906112541 40 218 6.0 13.0 0.00 0.00 0.00 81 1025.8
20260906112101 40 200 6.0 13.0 0.00 0.00 0.00 82 1025.8
20260906111546 40 239 6.0 13.0 0.00 0.00 0.00 82 1025.9
20260906111028 39 189 5.0 14.0 0.00 0.00 0.00 83 1025.9
20260906110530 40 195 6.0 10.0 0.00 0.00 0.00 83 1025.9
20260906110049 40 200 6.0 13.0 0.00 0.00 0.00 84 1025.9
20260906105530 40 211 8.0 13.0 0.00 0.00 0.00 83 1026.0
20260906105035 40 231 8.0 12.0 0.00 0.00 0.00 83 1026.0
20260906104536 40 206 5.0 12.0 0.00 0.00 0.00 85 1026.0
20260906104040 40 187 7.0 12.0 0.00 0.00 0.00 85 1025.9
20260906103527 40 187 7.0 11.0 0.00 0.00 0.00 86 1026.0
20260906103029 39 199 8.0 11.0 0.00 0.00 0.00 86 1025.9
20260906102551 39 191 7.0 10.0 0.00 0.00 0.00 86 1025.8
20260906102054 39 196 5.0 10.0 0.00 0.00 0.00 86 1025.9
20260906101104 39 198 6.0 10.0 0.00 0.00 0.00 86 1025.6
20260906100544 39 208 6.0 9.0 0.00 0.00 0.00 86 1025.7
20260906100030 39 204 5.0 9.0 0.00 0.00 0.00 86 1025.7
20260906095552 39 197 5.0 9.0 0.00 0.00 0.00 86 1025.6
20260906095032 39 217 6.0 10.0 0.00 0.00 0.00 86 1025.5
20260906094533 39 215 7.0 10.0 0.00 0.00 0.00 86 1025.5
20260906094033 39 214 6.0 10.0 0.00 0.00 0.00 86 1025.5
20260906093537 40 220 6.0 9.0 0.00 0.00 0.00 86 1025.3
20260906093038 40 165 5.0 9.0 0.00 0.00 0.00 86 1025.2
20260906091616 40 193 327.0 327.0 0.00 0.00 0.00 86 1024.9
20260906091046 40 210 7.0 11.0 0.00 0.00 0.00 85 1024.8
20260906090602 40 214 8.0 11.0 0.00 0.00 0.00 86 1024.7
20260906090039 40 200 5.0 12.0 0.00 0.00 0.00 86 1024.5
20260906085540 40 222 8.0 16.0 0.00 0.00 0.00 86 1024.5
20260906085041 40 162 7.0 16.0 0.00 0.00 0.00 85 1024.4
20260906084527 40 160 10.0 13.0 0.00 0.00 0.00 85 1024.3
20260906084034 41 192 6.0 11.0 0.00 0.00 0.00 85 1024.3
20260906083533 41 200 6.0 14.0 0.00 0.00 0.00 84 1024.3
20260906083036 41 198 8.0 14.0 0.00 0.00 0.00 84 1024.3
20260906082538 41 202 3.0 10.0 0.00 0.00 0.00 84 1024.4
20260906082041 41 196 7.0 11.0 0.00 0.00 0.00 84 1024.3
20260906081540 42 200 5.0 9.0 0.00 0.00 0.00 84 1024.2
20260906081044 42 199 5.0 14.0 0.00 0.00 0.00 84 1024.1
20260906080527 42 203 6.0 14.0 0.00 0.00 0.00 84 1024.2
20260906080052 42 181 6.0 12.0 0.00 0.00 0.00 83 1024.0
20260906075535 42 216 7.0 14.0 0.00 0.00 0.00 83 1023.9
20260906075038 42 214 9.0 14.0 0.00 0.00 0.00 83 1024.0
20260906074601 42 226 5.0 12.0 0.00 0.00 0.00 83 1024.0
20260906074043 43 211 5.0 10.0 0.00 0.00 0.00 83 1023.9
20260906073549 43 241 6.0 10.0 0.00 0.00 0.00 83 1023.9
20260906073031 43 188 5.0 10.0 0.00 0.00 0.00 82 1023.8
20260906072534 43 228 6.0 11.0 0.00 0.00 0.00 82 1023.8
20260906072036 43 263 6.0 11.0 0.00 0.00 0.00 83 1023.9
20260906071538 43 257 5.0 10.0 0.00 0.00 0.00 83 1023.9
20260906071043 43 264 5.0 12.0 0.00 0.00 0.00 83 1023.8
20260906070525 43 209 5.0 11.0 0.00 0.00 0.00 83 1023.8
20260906070045 43 212 7.0 13.0 0.00 0.00 0.00 82 1023.9
20260906065608 43 211 8.0 13.0 0.00 0.00 0.00 83 1023.7
20260906065029 44 193 5.0 18.0 0.00 0.00 0.00 84 1023.7
20260906064535 44 188 11.0 18.0 0.00 0.00 0.00 84 1023.6
20260906064037 44 198 13.0 17.0 0.00 0.00 0.00 85 1023.5
20260906063539 44 228 8.0 14.0 0.00 0.00 0.00 85 1023.5
20260906063029 44 195 8.0 14.0 0.00 0.00 0.00 86 1023.6
20260906062535 44 173 5.0 10.0 0.00 0.00 0.00 87 1023.7
20260906062042 44 201 6.0 10.0 0.00 0.00 0.00 87 1023.5
20260906061544 44 189 5.0 10.0 0.00 0.00 0.00 86 1023.5
20260906061105 44 205 4.0 9.0 0.00 0.00 0.00 87 1023.5
20260906060528 44 189 5.0 9.0 0.00 0.00 0.00 87 1023.6
20260906060034 44 199 3.0 9.0 0.00 0.00 0.00 87 1023.6
20260906055535 44 184 4.0 11.0 0.00 0.00 0.00 87 1023.6
20260906055055 44 188 8.0 12.0 0.00 0.00 0.00 87 1023.7
20260906054537 44 169 7.0 15.0 0.00 0.00 0.00 86 1023.6
20260906054042 44 174 7.0 14.0 0.00 0.00 0.00 86 1023.6
20260906053545 44 199 8.0 14.0 0.00 0.00 0.00 85 1023.6
20260906053027 44 174 9.0 14.0 0.00 0.00 0.00 85 1023.3
20260906052530 44 175 6.0 10.0 0.00 0.00 0.00 85 1023.4
20260906052038 45 217 6.0 17.0 0.00 0.00 0.00 84 1023.4
20260906051541 45 172 9.0 17.0 0.00 0.00 0.00 84 1023.4
20260906051041 45 216 7.0 13.0 0.00 0.00 0.00 84 1023.3
20260906050525 45 166 6.0 13.0 0.00 0.00 0.00 83 1023.5
20260906050051 45 185 7.0 13.0 0.00 0.00 0.00 82 1023.5
20260906045531 45 200 8.0 12.0 0.00 0.00 0.00 82 1023.4
20260906045033 45 214 8.0 12.0 0.00 0.00 0.00 82 1023.3
20260906044537 45 217 7.0 12.0 0.00 0.00 0.00 83 1023.4
20260906044039 45 213 6.0 11.0 0.00 0.00 0.00 82 1023.3
20260906043541 45 216 5.0 17.0 0.00 0.00 0.00 82 1023.3
20260906043044 45 193 8.0 17.0 0.00 0.00 0.00 82 1023.2
20260906042548 46 235 6.0 12.0 0.00 0.00 0.00 82 1023.2
20260906042032 46 184 4.0 19.0 0.00 0.00 0.00 83 1023.2
20260906041534 46 200 12.0 19.0 0.00 0.00 0.00 83 1023.1
20260906041041 46 211 10.0 17.0 0.00 0.00 0.00 84 1022.9
20260906040544 46 230 9.0 17.0 0.00 0.00 0.00 88 1022.9
20260906040027 46 217 9.0 16.0 0.00 0.00 0.00 89 1022.8
20260906035533 46 225 9.0 14.0 0.00 0.00 0.00 89 1022.8
20260906035037 46 200 9.0 13.0 0.00 0.00 0.00 89 1022.6
20260906034537 46 257 4.0 8.0 0.00 0.00 0.00 89 1022.6
20260906034040 47 196 6.0 8.0 0.00 0.00 0.00 89 1022.5
20260906033541 47 207 5.0 8.0 0.00 0.00 0.00 89 1022.4
20260906031602 47 207 7.0 11.0 0.00 0.00 0.00 88 1022.7
20260906031028 47 214 6.0 13.0 0.00 0.00 0.00 88 1022.7
20260906030529 47 200 8.0 13.0 0.00 0.00 0.00 88 1022.5
20260906030031 47 205 6.0 12.0 0.00 0.00 0.00 88 1022.7
20260906025535 47 230 6.0 15.0 0.00 0.00 0.00 88 1022.7
20260906025039 47 247 7.0 15.0 0.00 0.00 0.00 88 1022.7
20260906024539 47 210 8.0 11.0 0.00 0.00 0.00 88 1022.6
20260906024044 47 215 6.0 14.0 0.00 0.00 0.00 89 1022.5
20260906023544 47 193 8.0 14.0 0.00 0.00 0.00 89 1022.6
20260906023107 47 201 7.0 11.0 0.00 0.00 0.00 90 1022.5
20260906022545 47 219 7.0 12.0 0.00 0.00 0.00 90 1022.5
20260906022047 47 193 7.0 13.0 0.00 0.00 0.00 89 1022.3
20260906021529 47 200 8.0 12.0 0.00 0.00 0.00 89 1022.2
20260906021035 48 174 3.0 9.0 0.00 0.00 0.00 89 1022.1
20260906020537 47 186 6.0 9.0 0.00 0.00 0.00 89 1022.1
20260906020040 47 191 5.0 8.0 0.00 0.00 0.00 88 1022.0
20260906015603 47 184 3.0 9.0 0.00 0.00 0.00 88 1022.0
20260906015044 47 165 3.0 9.0 0.00 0.00 0.00 87 1022.2
20260906014545 47 183 5.0 9.0 0.00 0.00 0.00 87 1022.3
20260906014107 47 159 5.0 9.0 0.00 0.00 0.00 87 1022.3
20260906013548 48 215 5.0 8.0 0.00 0.00 0.00 86 1022.4
20260906013032 48 188 3.0 9.0 0.00 0.00 0.00 86 1022.4
20260906012535 48 217 5.0 9.0 0.00 0.00 0.00 85 1022.4
20260906012036 48 244 3.0 8.0 0.00 0.00 0.00 84 1022.3
20260906011537 48 309 2.0 7.0 0.00 0.00 0.00 83 1022.3
20260906011058 48 246 3.0 9.0 0.00 0.00 0.00 82 1022.3
20260906010540 49 221 4.0 9.0 0.00 0.00 0.00 81 1022.3
20260906010044 49 238 3.0 10.0 0.00 0.00 0.00 80 1022.3
20260906005542 49 184 4.0 10.0 0.00 0.00 0.00 78 1022.3
20260906004546 50 224 4.0 9.0 0.00 0.00 0.00 75 1021.9
20260906004027 51 205 5.0 9.0 0.00 0.00 0.00 73 1021.8
20260906003528 51 215 5.0 9.0 0.00 0.00 0.00 72 1021.7
20260906003031 51 214 2.0 6.0 0.00 0.00 0.00 72 1021.7
20260906002533 51 323 1.0 4.0 0.00 0.00 0.00 72 1021.4
20260906002037 51 311 0.0 5.0 0.00 0.00 0.00 72 1021.5
20260906001536 51 319 2.0 5.0 0.00 0.00 0.00 72 1021.5
20260906001039 51 333 1.0 4.0 0.00 0.00 0.00 72 1021.5
20260906000542 51 331 2.0 4.0 0.00 0.00 0.00 72 1021.4
20260906000026 51 302 2.0 4.0 0.00 0.00 0.00 72 1021.3
20260905235529 51 319 1.0 4.0 0.00 0.00 0.00 72 1021.3
20260905235033 51 326 2.0 3.0 0.00 0.00 0.00 72 1021.3
20260905234533 51 336 1.0 4.0 0.00 0.00 0.00 72 1021.4
20260905234052 51 329 2.0 5.0 0.00 0.00 0.00 71 1021.3
20260905233536 51 320 3.0 6.0 0.00 0.00 0.00 71 1021.2
20260905233036 51 323 2.0 6.0 0.00 0.00 0.00 71 1021.2
20260905232538 51 321 2.0 4.0 0.00 0.00 0.00 71 1021.3
20260905232043 51 284 3.0 4.0 0.00 0.00 0.00 71 1021.3
20260905231528 52 296 2.0 5.0 0.00 0.00 0.00 71 1021.2
20260905231106 52 297 3.0 5.0 0.00 0.00 0.00 70 1021.0
20260905230529 52 321 2.0 5.0 0.00 0.00 0.00 71 1021.0
20260905230034 52 307 3.0 4.0 0.00 0.00 0.00 70 1021.0
20260905225537 52 326 2.0 5.0 0.00 0.00 0.00 70 1021.0
20260905225039 52 270 3.0 5.0 0.00 0.00 0.00 70 1020.9
20260905224542 52 295 3.0 5.0 0.00 0.00 0.00 70 1021.0
20260905224043 52 304 4.0 5.0 0.00 0.00 0.00 70 1021.0
20260905223544 52 323 3.0 6.0 0.00 0.00 0.00 70 1020.9
20260905223044 52 319 4.0 6.0 0.00 0.00 0.00 70 1020.9
20260905222607 52 295 3.0 5.0 0.00 0.00 0.00 71 1020.8